{"data":{"norad_id":58989,"epoch":"2026-05-25T03:19:33.369888Z","epoch_age_seconds":66496,"freshness":"FRESH","line1":"1 58989U 24032C   26145.13858067  .00000953  00000+0  15823-3 0  9994","line2":"2 58989  97.9977 203.8429 0004206 205.3433 154.7568 14.72395142121692","mean_motion":14.72395142,"eccentricity":0.0004206,"inclination_deg":97.9977,"raan_deg":203.8429,"arg_perigee_deg":205.3433,"mean_anomaly_deg":154.7568,"bstar":0.00015823,"rev_number":12169,"period_min":97.799833680788,"perigee_km":650.47475845801,"apogee_km":656.38971449974,"semimajor_km":7031.5692364789,"source":"CELESTRAK","updated_at":"2026-05-25T13:38:01.118794Z"}}